Powrót do katalogu

SL-14 DEB

AktywnyPO
NORAD 19178·DEBRIS·🇷🇺 Russia

Wystrzelony Oct 26, 1978 z Plesetsk Cosmodrome

Loading…

Następne Przeloty (najbliższe 24 godziny)

TLE

ŚwieżeSource: Space-Track

Epoka: Sep 13, 2026, 07:46 UTC

1 19178U 78100U   26256.32369466 -.00000084  00000-0 -91998-3 0  9995
2 19178  82.1164   4.1543 0036863 209.5637 176.2329 12.17903252696637

Śledź SL-14 DEB w czasie rzeczywistym z AllMySat

Download on the App Store